星链-2348 (STARLINK-2348 )

导读 | 豆包AI

STARLINK-2348是美国太空探索技术公司(SpaceX)星链(Starlink)星座的成员卫星,于2021年3月14日发射升空。它运行在近地轨道,轨道高度约475公里,倾角53.157°,属于星链项目组网卫星。作为全球低轨互联网星座的组成部分,它为全球偏远地区、移动场景提供高速低延迟宽带服务,目前仍保持正常工作状态。

Basic Information
目录编号:
47888
目录名称:
STARLINK-2348
国际标识:
2021-021AE
轨道中心:
EARTH
卫星名称:
星链-2348
卫星全名:
星链-2348 (STARLINK-2348 )
卫星状态:
已陨落 最后检测时间 2025-04-23
发射日期:
2021-03-14 UTC
国别 :
美国 (US)
星等 :
--
Orbit Information
数据来源 国际轨道数据
星历时间: 2025-04-23T06:45:33+0800
轨道信息已过期325天
半长轴: 6531.521km
偏心率: 0.0011245
轨道倾角: 53.030°
近地点辐角 315.533°
升交点赤经 246.353°
平近点角 145.284°
近地点: 146.041km
远地点: 160.731km
周期: 87.555分钟
每日圈数: 16.446798
Detailed Information
固有亮度:
5
最大亮度:
2.5
卫星平台:
Starlink V1.0
覆盖范围:
全球
运营商:
太空探索技术公司
运营商所在国:
美国
制造商(研发单位):
太空探索技术公司
制造商所在国:
美国
使用方式:
暂无
Satellite Introduction
星链(Starlink)计划是由太空探索技术公司(SpaceX)提出的一个巨型低轨卫星互联网星座项目,计划在2019年至2024年间在太空搭建由约1.2万颗卫星组成的“星链”网络,其中1584颗将部署在地球上空550千米处的近地轨道,并从2020年开始工作。该卫星仍在工作。